sat.trackr.live / text

‹ back to catalog

STARLINK-5703

NORAD 55593 · 2023-020AA

PAYLOAD ACTIVE UNKNOWN

§ Identity

Operator
Country
US
Launch date
2023-02-12
Launch site
AFETR
Launch vehicle
Mass (kg)
RCS (m²)

Purposes: comms

External: N2YO · Heavens-Above · Gunter

§ Orbital elements

Epoch: 2026-05-25T02:30:36.385920Z

Period
94.27 min
Inclination
43.0028°
Eccentricity
0.0001257
Mean motion
15.27577366 rev/d
Perigee alt
482.2 km
Apogee alt
483.9 km
Semi-major
6,861.2 km
B*
1.7874e-5
RAAN
293.2939°
Arg perigee
276.7627°
Mean anomaly
83.3082°
Rev number
18,060

§ Raw data

STARLINK-57031 55593U 23020AA  26145.10458780  .00000230  00000+0  17874-4 0  99902 55593  43.0028 293.2939 0001257 276.7627  83.3082 15.27577366180603

JSON: /api/v1/satellites/55593 · /tle

For live sub-satellite position, see the globe view (requires WebGL).

§ Visibility from observer

Set your observer location to see the next 7 days of passes ≥ 10°. The values pass through the URL so the page stays shareable.

No JS? Fill the form by hand. The geolocation button needs JavaScript.